Location: Newark
(45.5000°N, 11.4167°E)
Time: 05:50:00
(UTC+00:00)

Vanguard 3 - Pass Details

Date: 23 August 2019
Orbit: 508 x 3263 km, 33.4° (Epoch: 13 September)

Event Time Altitude Azimuth Distance (km) Brightness Sun altitude
Rises 15:15:56 0° 222° (SW) 5,184 12.1 29.2°
Reaches altitude 10° 15:21:12 10° 206° (SSW) 3,597 11.1 28.3°
Maximum altitude 15:26:29 18° 168° (SSE) 2,451 9.8 27.4°
Drops below altitude 10° 15:30:25 10° 128° (SE) 2,537 9.4 26.7°
Sets 15:33:17 0° 107° (ESE) 3,169 9.7 26.2°
